This is the latest recevied weather packets stored in our database for station/object DH4SBM. If no packets are shown the sender has not sent any weather packets the latest 10 day(s).
| Time | Temp. | Humidity | Pressure | Rain* | Wind** | Luminosity | Snow |
|---|---|---|---|---|---|---|---|
| 1778183321 | 10.56° C | 82% | 1017.8 hPa | 0 mm | - | 0 W/m² | - |
| 1778182721 | 10.56° C | 82% | 1017.8 hPa | 0 mm | - | 0 W/m² | - |
| 1778182121 | 11.11° C | 81% | 1017.8 hPa | 0 mm | - | 0 W/m² | - |
| 1778181521 | 11.11° C | 81% | 1017.7 hPa | 0 mm | - | 0 W/m² | - |
| 1778180921 | 11.67° C | 80% | 1017.5 hPa | 0 mm | - | 0 W/m² | - |
| 1778180321 | 11.67° C | 79% | 1017.5 hPa | 0 mm | - | 0 W/m² | - |
| 1778179721 | 12.22° C | 79% | 1017.3 hPa | 0 mm | - | 0 W/m² | - |
| 1778179121 | 12.22° C | 79% | 1017.3 hPa | 0 mm | - | 11 W/m² | - |
| 1778178521 | 12.22° C | 78% | 1017.3 hPa | 0 mm | - | 12 W/m² | - |
| 1778177921 | 12.78° C | 78% | 1017.1 hPa | 0 mm | - | 28 W/m² | - |
| 1778177321 | 12.78° C | 78% | 1016.9 hPa | 0 mm | - | 49 W/m² | - |
| 1778176721 | 12.22° C | 78% | 1017 hPa | 0 mm | - | 63 W/m² | - |
| 1778176121 | 12.22° C | 79% | 1017.1 hPa | 0 mm | - | 90 W/m² | - |
| 1778175521 | 12.22° C | 79% | 1016.9 hPa | 0 mm | - | 58 W/m² | - |
| 1778174921 | 12.22° C | 79% | 1016.9 hPa | 0 mm | - | 60 W/m² | - |
| 1778174321 | 12.22° C | 78% | 1016.7 hPa | 0 mm | - | 56 W/m² | - |
| 1778173721 | 12.78° C | 78% | 1016.7 hPa | 0 mm | - | 63 W/m² | - |
| 1778173121 | 12.78° C | 76% | 1016.7 hPa | 0 mm | - | 65 W/m² | - |
| 1778172521 | 12.78° C | 76% | 1016.8 hPa | 0 mm | - | 63 W/m² | - |
| 1778171921 | 13.33° C | 74% | 1016.9 hPa | 0 mm | - | 76 W/m² | - |
| 1778171321 | 13.33° C | 73% | 1016.7 hPa | 0 mm | - | 121 W/m² | - |
| 1778170721 | 13.33° C | 75% | 1016.7 hPa | 0 mm | - | 278 W/m² | - |
| 1778170121 | 13.33° C | 74% | 1016.6 hPa | 0 mm | - | 304 W/m² | - |
| 1778169521 | 13.33° C | 77% | 1016.8 hPa | 0 mm | - | 146 W/m² | - |
| 1778168921 | 13.33° C | 76% | 1016.8 hPa | 0 mm | - | 176 W/m² | - |
* Rain latest hour (hover to see other rain measurements)
** Current wind speed in m/s (hover to see current wind gust speed)